Weather History for Palmdale, CA

Change the Weather History Date:

Thursday, November 7, 2013

  Actual Average Record
Temperature  
Mean Temperature 55 °F 55 °F  
Max Temperature 71 °F 70 °F 86 °F (1950)
Min Temperature 38 °F 40 °F 27 °F (1935)
Degree Days  
Heating Degree Days 10 10  
Month to date heating degree days 70 63  
Since 1 July heating degree days 231 190  
Cooling Degree Days 0 0  
Month to date cooling degree days 0 0  
Year to date cooling degree days 2126 1814  
Growing Degree Days 4 (Base 50)    
Moisture  
Dew Point 13 °F    
Average Humidity 23    
Maximum Humidity 34    
Minimum Humidity 11    
Precipitation  
Precipitation 0.00 in 0.02 in 1.38 in (1966)
Month to date precipitation 0.00 0.23  
Year to date precipitation 1.07 6.68  
Since 1 July precipitation 0.21 1.36  
Snow  
Snow 0.00 in - 0.00 in (1973)
Month to date snowfall 0.0  
Since 1 July snowfall 0.0  
Since 1 September snowfall 0.0  
Snow Depth 0.00 in    
Sea Level Pressure  
Sea Level Pressure 30.18 in    
Wind  
Wind Speed 3 mph (SSW)    
Max Wind Speed 12 mph    
Max Gust Speed 12 mph    
Visibility 10 miles    
Events      
T = Trace of Precipitation, MM = Missing Value Source: NWS Daily Summary

Daily Weather History Graph

Daily Weather History Graph

Search for Another Location

Airport:

Trip Planner

Search our weather history database for the weather conditions in past years. The results will help you decide how hot, cold, wet, or windy it might be!

Date:

Astronomy

Nov. 07, 2013 Rise Set
Actual Time 6:18 AM PST 4:52 PM PST
Civil Twilight 5:52 AM PST 5:19 PM PST
Nautical Twilight 5:22 AM PST 5:49 PM PST
Astronomical Twilight 4:52 AM PST 6:18 PM PST
Moon 10:29 AM PST (11/7) 9:11 PM PST (11/7)
Length of Visible Light 11h 26m
Length of Day
10h 34m
Waxing Crescent, 24% of the Moon is Illuminated
Nov 7
Waxing Crescent
Nov 9
First Quarter
Nov 17
Full
Nov 25
Last Quarter
Dec 2
New

Hourly Weather History & Observations

Time (PST) Temp. Windchill Dew Point Humidity Pressure Visibility Wind Dir Wind Speed Gust Speed Precip Events Conditions
12:53 AM 42.1 °F 40.2 °F 9.0 °F 26% 30.26 in 10.0 mi SW 3.5 mph - N/A   Clear
1:53 AM 39.9 °F 35.8 °F 10.9 °F 31% 30.25 in 10.0 mi SSW 5.8 mph - N/A   Clear
2:53 AM 39.9 °F - 12.9 °F 33% 30.24 in 10.0 mi Calm Calm - N/A   Clear
3:53 AM 39.0 °F - 9.0 °F 29% 30.24 in 10.0 mi Calm Calm - N/A   Clear
4:53 AM 39.9 °F 36.7 °F 12.9 °F 33% 30.25 in 10.0 mi SW 4.6 mph - N/A   Clear
5:53 AM 39.0 °F 35.7 °F 14.0 °F 36% 30.25 in 10.0 mi SSW 4.6 mph - N/A   Clear
6:53 AM 39.0 °F 35.7 °F 12.9 °F 34% 30.26 in 10.0 mi SSW 4.6 mph - N/A   Clear
7:53 AM 48.0 °F - 12.0 °F 24% 30.27 in 10.0 mi NNW 3.5 mph - N/A   Clear
8:53 AM 53.1 °F - 12.0 °F 20% 30.28 in 10.0 mi Calm Calm - N/A   Clear
9:53 AM 59.0 °F - 12.0 °F 16% 30.25 in 10.0 mi Calm Calm - N/A   Clear
10:53 AM 63.0 °F - 10.9 °F 13% 30.23 in 10.0 mi Calm Calm - N/A   Clear
11:53 AM 66.0 °F - 12.9 °F 13% 30.19 in 10.0 mi NE 3.5 mph - N/A   Clear
12:53 PM 68.0 °F - 14.0 °F 12% 30.16 in 10.0 mi Calm Calm - N/A   Clear
1:53 PM 70.0 °F - 14.0 °F 12% 30.14 in 10.0 mi East 3.5 mph - N/A   Clear
2:53 PM 70.0 °F - 14.0 °F 12% 30.12 in 10.0 mi Calm Calm - N/A   Clear
3:53 PM 70.0 °F - 14.0 °F 12% 30.11 in 10.0 mi Variable 3.5 mph - N/A   Clear
4:53 PM 66.9 °F - 14.0 °F 13% 30.11 in 10.0 mi Calm Calm - N/A   Clear
5:53 PM 63.0 °F - 14.0 °F 15% 30.11 in 10.0 mi Calm Calm - N/A   Clear
6:53 PM 54.0 °F - 15.1 °F 22% 30.13 in 10.0 mi SSW 8.1 mph - N/A   Clear
7:53 PM 51.1 °F - 17.1 °F 26% 30.11 in 10.0 mi SSW 11.5 mph - N/A   Clear
8:53 PM 50.0 °F - 16.0 °F 26% 30.11 in 10.0 mi SSW 9.2 mph - N/A   Clear
9:53 PM 51.1 °F - 17.1 °F 26% 30.10 in 10.0 mi NNE 3.5 mph - N/A   Clear
10:53 PM 50.0 °F - 16.0 °F 26% 30.09 in 10.0 mi Calm Calm - N/A   Clear
11:53 PM 45.0 °F 39.7 °F 17.1 °F 33% 30.08 in 10.0 mi South 10.4 mph - N/A   Clear